Flag for U.S.A. Weather past 2 weeks in Fort Wayne, Indiana, U.S.A.

Now
73 °F

Overcast.


Feels Like: 77 °F
Forecast: 53 / 79 °F
Wind: 8 mph from Southwest

Location: Fort Wayne International Airport

Current Time: Jul 25, 2014 at 7:03:23 PM

Latest Report: Jul 25, 2014 at 5:54 PM


Visibility: 10 mi

Pressure: 30.00 "Hg

Humidity: 53%

Dew point: 55 °F

Location of Fort WayneLocation

Historic Weather in Fort Wayne — Graph

°F

Fort Wayne temperature yesterday

Maximum temperature yesterday: 76 °F (at 2:54 PM)
Minimum temperature yesterday: 61 °F (at 11:54 PM)
Average temperature yesterday: 68 °F

Past Weeks' High & Low Weather Summary

 TemperatureHumidityPressure
High86 °F (Jul 14, 3:54 PM)97% (Jul 20, 5:54 AM)30.24 "Hg (Jul 20, 5:54 AM)
Low50 °F (Jul 17, 6:54 AM)33% (Jul 17, 5:54 PM)29.79 "Hg (Jul 14, 11:54 PM)
Average69 °F70%30.04 "Hg
* Reported Jul 10 5:54 PM — Jul 25 5:54 PM, Fort Wayne, Weather by CustomWeather, © 2014

Note: Actual official high and low records may vary slightly from our data, if they occured in-between our weather recording intervals... More about our weather records

Advertising

Fort Wayne weather history for previous 24 hours

 ConditionsComfort  
Time TempWeatherWind HumidityBarometerVisibility
5:54 PM
Jul 25
73 °FOvercast.8 mph53%30.00 "Hg10 mi
4:54 PM74 °FPartly sunny.12 mph52%29.99 "Hg10 mi
3:54 PM75 °FPartly sunny.12 mph50%30.01 "Hg10 mi
2:54 PM75 °FPartly sunny.10 mph48%30.03 "Hg10 mi
1:54 PM75 °FBroken clouds.9 mph48%30.04 "Hg10 mi
12:54 PM72 °FBroken clouds.8 mph52%30.06 "Hg10 mi
11:54 AM71 °FBroken clouds.9 mph57%30.09 "Hg10 mi
10:54 AM70 °FBroken clouds.7 mph59%30.09 "Hg10 mi
9:54 AM67 °FBroken clouds.8 mph63%30.11 "Hg10 mi
8:54 AM62 °FBroken clouds.6 mph75%30.10 "Hg10 mi
7:54 AM60 °FScattered clouds.5 mph80%30.09 "Hg10 mi
6:54 AM54 °FPassing clouds.3 mph86%30.09 "Hg10 mi
5:54 AM56 °FPassing clouds.5 mph84%30.09 "Hg10 mi
4:54 AM57 °FPassing clouds.No wind81%30.09 "Hg10 mi
3:54 AM56 °FPassing clouds.No wind84%30.07 "Hg10 mi
2:54 AM57 °FPassing clouds.3 mph83%30.05 "Hg10 mi
1:54 AM57 °FPassing clouds.No wind87%30.06 "Hg10 mi
12:54 AM59 °FPassing clouds.5 mph84%30.07 "Hg10 mi
11:54 PM
Jul 24
61 °FPassing clouds.No wind81%30.08 "Hg10 mi
10:54 PM65 °FPassing clouds.No wind68%30.08 "Hg10 mi
9:54 PM64 °FPartly sunny.No wind78%30.06 "Hg10 mi
8:54 PM70 °FPartly sunny.3 mph57%30.06 "Hg10 mi
7:54 PM72 °FPartly sunny.5 mph52%30.06 "Hg10 mi
Weather by CustomWeather, © 2014

See weather overviewHow to use our weather pages